{"data":{"norad_id":66300,"intl_designator":"2025-248H","name":"ICEYE-X65","alt_names":[],"object_type":"PAYLOAD","status":"ACTIVE","operator":null,"country":"UAE","launch_date":"2025-11-02","launch_site_code":"AFETR","launch_vehicle":null,"mission":null,"orbit_class":"UNKNOWN","rcs_meters":null,"size_class":null,"mass_kg":null,"dimensions":null,"purposes":[],"wikipedia_slug":null,"has_3d_model":false,"image_url":null,"decayed_at":null,"tle_current":{"epoch":"2026-09-20T22:33:25.533504Z","epoch_age_seconds":93724,"freshness":"FRESH","line1":"1 66300U 25248H   26263.93987886  .00001674  00000+0  12237-3 0  9998","line2":"2 66300  45.4061 350.5611 0005625 214.2804 145.7715 15.08211609 49979","mean_motion":15.08211609,"eccentricity":0.0005625,"inclination_deg":45.4061,"raan_deg":350.5611,"arg_perigee_deg":214.2804,"mean_anomaly_deg":145.7715,"bstar":0.00012237,"rev_number":4997,"period_min":95.477318395313,"perigee_km":537.77240720967,"apogee_km":545.55718422986,"semimajor_km":6919.8017957198,"source":"CELESTRAK","updated_at":"2026-09-21T09:00:15.899281Z"}}}